Change the Weather History Date:

Saturday, March 15, 2014

  Actual Average Record
Temperature  
Mean Temperature 53 °F 46 °F  
Max Temperature 73 °F 56 °F 80 °F (1977)
Min Temperature 33 °F 35 °F 8 °F (1949)
Degree Days  
Heating Degree Days 12 19  
Month to date heating degree days 374 326  
Since 1 July heating degree days 4593 3943  
Cooling Degree Days 0 0  
Month to date cooling degree days 0 0  
Year to date cooling degree days 0 0  
Growing Degree Days 4 (Base 50)    
Moisture  
Dew Point 33 °F    
Average Humidity 44    
Maximum Humidity 64    
Minimum Humidity 24    
Precipitation  
Precipitation 0.00 in 0.09 in 1.77 in (1982)
Month to date precipitation 0.36 1.23  
Year to date precipitation 1.14 4.83  
Sea Level Pressure  
Sea Level Pressure 29.93 in    
Wind  
Wind Speed 10 mph (SSE)    
Max Wind Speed 23 mph    
Max Gust Speed 31 mph    
Visibility 10 miles    
Events      
T = Trace of Precipitation, MM = Missing Value Source: NWS Daily Summary

Daily Weather History Graph

Daily Weather History Graph

Search for Another Location

Airport or City:

Trip Planner

Search our weather history database for the weather conditions in past years. The results will help you decide how hot, cold, wet, or windy it might be!

Date:

Astronomy

Mar. 15, 2014 Rise Set
Actual Time 7:23 AM CDT 7:19 PM CDT
Civil Twilight 6:57 AM CDT 7:46 PM CDT
Nautical Twilight 6:26 AM CDT 8:17 PM CDT
Astronomical Twilight 5:55 AM CDT 8:48 PM CDT
Moon 6:39 PM CDT (3/15) 6:35 AM CDT (3/15)
Length of Visible Light 12h 48m
Length of Day
11h 55m
Waxing Gibbous, 99% of the Moon is Illuminated
Mar 15
Waxing Gibbous
Mar 16
Full
Mar 23
Last Quarter
Mar 30
New
Apr 7
First Quarter

Hourly Weather History & Observations

Time (CDT) Temp. Windchill Dew Point Humidity Pressure Visibility Wind Dir Wind Speed Gust Speed Precip Events Conditions
12:53 AM 46.9 °F - 23.0 °F 39% 30.01 in 10.0 mi Calm Calm - N/A   Clear
1:53 AM 41.0 °F 37.1 °F 26.1 °F 55% 30.01 in 10.0 mi South 5.8 mph - N/A   Clear
2:53 AM 41.0 °F 35.8 °F 25.0 °F 53% 30.01 in 10.0 mi South 8.1 mph - N/A   Clear
3:53 AM 39.9 °F 35.8 °F 25.0 °F 55% 30.00 in 10.0 mi South 5.8 mph - N/A   Clear
4:53 AM 39.0 °F - 24.1 °F 55% 29.99 in 10.0 mi North - - N/A   Clear
5:53 AM 37.9 °F 34.4 °F 24.1 °F 57% 29.98 in 10.0 mi SE 4.6 mph - N/A   Clear
6:53 AM 36.0 °F 32.1 °F 24.1 °F 62% 29.98 in 10.0 mi SSE 4.6 mph - N/A   Clear
7:53 AM 37.0 °F 29.8 °F 25.0 °F 62% 29.99 in 10.0 mi South 10.4 mph - N/A   Clear
8:53 AM 46.9 °F - 28.0 °F 48% 29.99 in 10.0 mi South 11.5 mph - N/A   Clear
9:53 AM 57.0 °F - 28.0 °F 33% 29.98 in 10.0 mi South 11.5 mph - N/A   Clear
10:53 AM 64.0 °F - 26.1 °F 24% 29.97 in 10.0 mi South 13.8 mph - N/A   Clear
11:53 AM 66.0 °F - 30.0 °F 26% 29.96 in 10.0 mi South 17.3 mph 27.6 mph N/A   Clear
12:53 PM 69.1 °F - 34.0 °F 27% 29.94 in 10.0 mi South 15.0 mph 24.2 mph N/A   Clear
1:53 PM 72.0 °F - 36.0 °F 27% 29.91 in 10.0 mi SSW 16.1 mph 24.2 mph N/A   Clear
2:53 PM 71.1 °F - 37.9 °F 30% 29.87 in 10.0 mi SSW 12.7 mph - N/A   Clear
3:10 PM 73.0 °F - 39.0 °F 29% 29.87 in 10.0 mi SSW 17.3 mph 23.0 mph N/A   Scattered Clouds
3:53 PM 72.0 °F - 41.0 °F 33% 29.86 in 10.0 mi SSW 10.4 mph - N/A   Partly Cloudy
4:53 PM 70.0 °F - 42.1 °F 36% 29.84 in 10.0 mi SSE 12.7 mph - N/A   Clear
5:53 PM 69.1 °F - 42.1 °F 38% 29.84 in 10.0 mi South 6.9 mph - N/A   Clear
6:53 PM 64.9 °F - 42.1 °F 43% 29.85 in 10.0 mi SSE 5.8 mph - N/A   Clear
7:53 PM 62.1 °F - 42.1 °F 48% 29.84 in 10.0 mi SE 3.5 mph - N/A   Clear
8:53 PM 57.9 °F - 41.0 °F 53% 29.85 in 10.0 mi ESE 3.5 mph - N/A   Scattered Clouds
9:53 PM 59.0 °F - 39.9 °F 49% 29.84 in 10.0 mi ESE 5.8 mph - N/A   Mostly Cloudy
10:53 PM 57.0 °F - 39.0 °F 51% 29.87 in 10.0 mi NE 20.7 mph 31.1 mph N/A   Overcast
11:53 PM 53.1 °F - 39.0 °F 59% 29.88 in 10.0 mi ENE 15.0 mph 23.0 mph N/A   Overcast